Hourly Data Report for October 12, 2015

All times are specified in Local Standard Time (LST). Add 1 hour to adjust for Daylight Saving Time where and when it is observed.

CHARLOTTETOWN A
PRINCE EDWARD ISLAND

46°17'21.000" N
63°07'09.000" W
48.50 m
8300301
71706
YYG

Download Data

Hourly Data (October 2015)
Hourly Data Report for October 12, 2015
Temp Definition
°C
Dew Point Temp Definition
°C
Rel Hum Definition
%
Wind Dir Definition
10's deg

Wind Spd Definition
km/h
Visibility Definition
km
Stn Press Definition
kPa
Hmdx Definition


Wind Chill Definition


Weather Definition


TIME
00:00 Legend Double Dagger 11.5 7.5 76 24 10 24.1 100.27     LegendNANA
01:00 Legend Double Dagger 11.2 9.0 86 22 8 24.1 100.27     LegendNANA
02:00 Legend Double Dagger 11.5 10.3 92 23 9 24.1 100.30     Cloudy
03:00 Legend Double Dagger 11.4 10.3 93 22 7 24.1 100.30     LegendNANA
04:00 Legend Double Dagger 11.6 10.5 93 22 6 24.1 100.29     LegendNANA
05:00 Legend Double Dagger 11.7 10.6 93 22 9 24.1 100.31     Cloudy
06:00 Legend Double Dagger 11.7 10.6 93 22 12 24.1 100.34     LegendNANA
07:00 Legend Double Dagger 12.0 10.9 93 21 10 24.1 100.40     LegendNANA
08:00 Legend Double Dagger 12.3 11.1 92 21 12 24.1 100.43     Cloudy
09:00 Legend Double Dagger 12.7 11.3 91 21 14 24.1 100.48     LegendNANA
10:00 Legend Double Dagger 13.1 11.2 88 21 12 24.1 100.49     LegendNANA
11:00 Legend Double Dagger 13.6 11.3 86 20 17 24.1 100.51     Cloudy
12:00 Legend Double Dagger 14.6 11.4 81 20 17 24.1 100.44     LegendNANA
13:00 Legend Double Dagger 14.6 11.4 81 20 18 24.1 100.44     LegendNANA
14:00 Legend Double Dagger 15.4 11.6 78 19 18 24.1 100.42     Cloudy
15:00 Legend Double Dagger 16.5 11.3 71 19 13 24.1 100.43     LegendNANA
16:00 Legend Double Dagger 16.3 11.1 71 19 14 24.1 100.46     LegendNANA
17:00 Legend Double Dagger 14.5 10.8 78 16 12 24.1 100.43     Mostly Cloudy
18:00 Legend Double Dagger 12.7 10.3 85 16 10 24.1 100.43     LegendNANA
19:00 Legend Double Dagger 12.0 9.8 86 16 9 24.1 100.46     LegendNANA
20:00 Legend Double Dagger 12.4 10.3 87 17 14 24.1 100.48     Mainly Clear
21:00 Legend Double Dagger 13.5 11.7 89 18 17 24.1 100.52     LegendNANA
22:00 Legend Double Dagger 12.1 11.2 94 18 13 24.1 100.53     LegendNANA
23:00 Legend Double Dagger 12.4 11.8 96 18 13 24.1 100.55     Clear

Notes on Data Quality.

Legend

  • E = Estimated
  • M = Missing
  • NA = Not Available
  • ‡ = Partner data that is not subject to review by the National Climate Archives
Date modified: